GFAST EGNM-LTFE

Flight info

Callsign GFAST
Flight time 3h 24m
Altitude 37000
Route LAMIX L603 DOLAS DCT NAVPI DCT DODEN DCT NEGIX DCT DINKU DCT BESNI DCT LATLO/N0511F390 DCT OBEDI DCT PODET DCT AGLIB DCT MITNO DCT VABEK UL603 OLOTA DCT RUGAS UN128 FSK DCT GIKAS DCT VEXOL UG802 IMR UN128 OKESA
Aircraft C750/M-SBDE3FGHRWXY/S

Departure

Time 2026-04-28 18:04
Airport Leeds Bradford Airport (EGNM)

Arrival

Time 2026-04-28 21:29
Airport Milas Bodrum International Airport (LTFE)
Time Latitude Longitude Altitude Speed Heading
2026-04-28 17:42 53.86431 -1.66347 662 ft 0 kts 144°
2026-04-28 18:00 53.86429 -1.66343 662 ft 2 kts 135°
2026-04-28 18:00 53.86429 -1.66312 662 ft 4 kts 65°
2026-04-28 18:00 53.86456 -1.66259 663 ft 6 kts 47°
2026-04-28 18:00 53.86496 -1.66184 662 ft 13 kts 48°
2026-04-28 18:01 53.86556 -1.66076 664 ft 10 kts 50°
2026-04-28 18:01 53.86535 -1.65970 663 ft 13 kts 138°
2026-04-28 18:01 53.86452 -1.65843 666 ft 19 kts 138°
2026-04-28 18:01 53.86339 -1.65670 671 ft 26 kts 137°
2026-04-28 18:02 53.86192 -1.65444 676 ft 32 kts 138°
2026-04-28 18:02 53.86027 -1.65190 671 ft 29 kts 138°
2026-04-28 18:02 53.85924 -1.65021 663 ft 13 kts 118°
2026-04-28 18:02 53.85892 -1.64908 661 ft 9 kts 159°
2026-04-28 18:03 53.85879 -1.64960 660 ft 5 kts 303°
2026-04-28 18:03 53.85890 -1.64980 660 ft 0 kts 318°
2026-04-28 18:03 53.85920 -1.65025 663 ft 26 kts 317°
2026-04-28 18:04 53.86297 -1.65605 674 ft 119 kts 317°
2026-04-28 18:04 53.87027 -1.66737 891 ft 150 kts 319°
2026-04-28 18:04 53.87813 -1.67974 1434 ft 157 kts 320°
2026-04-28 18:04 53.88528 -1.69327 2164 ft 148 kts 314°
2026-04-28 18:05 53.89205 -1.70680 2669 ft 161 kts 311°
2026-04-28 18:05 53.89544 -1.71940 2762 ft 189 kts 287°
2026-04-28 18:05 53.89650 -1.75205 3155 ft 227 kts 272°
2026-04-28 18:05 53.89466 -1.77906 3872 ft 235 kts 249°
2026-04-28 18:06 53.88458 -1.80025 4693 ft 232 kts 212°
2026-04-28 18:06 53.86967 -1.80888 5503 ft 226 kts 178°
2026-04-28 18:06 53.85438 -1.80524 6321 ft 223 kts 163°
2026-04-28 18:06 53.83889 -1.79809 6748 ft 241 kts 151°
2026-04-28 18:07 53.82527 -1.77971 7040 ft 262 kts 133°
2026-04-28 18:07 53.81209 -1.75836 7970 ft 263 kts 133°
2026-04-28 18:07 53.79851 -1.73729 8906 ft 267 kts 134°
2026-04-28 18:07 53.78463 -1.71595 9751 ft 273 kts 134°
2026-04-28 18:08 53.77055 -1.69409 10557 ft 277 kts 133°
2026-04-28 18:08 53.75607 -1.67149 11020 ft 294 kts 133°
2026-04-28 18:08 53.74031 -1.64694 11088 ft 322 kts 134°
2026-04-28 18:08 53.72319 -1.62049 11269 ft 342 kts 134°
2026-04-28 18:09 53.70621 -1.59272 12012 ft 339 kts 128°
2026-04-28 18:09 53.69237 -1.56046 12615 ft 340 kts 119°
2026-04-28 18:09 53.67997 -1.52637 13278 ft 342 kts 118°
2026-04-28 18:09 53.66663 -1.49287 13902 ft 347 kts 122°
2026-04-28 18:10 53.65178 -1.46057 14525 ft 350 kts 124°
2026-04-28 18:10 53.63691 -1.42799 15136 ft 351 kts 122°
2026-04-28 18:10 53.62263 -1.39448 15710 ft 353 kts 121°
2026-04-28 18:10 53.60828 -1.36065 16302 ft 357 kts 121°
2026-04-28 18:11 53.59346 -1.32695 16908 ft 360 kts 122°
2026-04-28 18:11 53.57845 -1.29309 17535 ft 362 kts 122°
2026-04-28 18:11 53.56350 -1.25888 18144 ft 364 kts 121°
2026-04-28 18:11 53.54848 -1.22436 18733 ft 367 kts 121°
2026-04-28 18:12 53.53344 -1.19010 19329 ft 371 kts 121°
2026-04-28 18:12 53.51802 -1.15516 19946 ft 373 kts 121°
2026-04-28 18:12 53.50252 -1.11997 20547 ft 376 kts 121°
2026-04-28 18:12 53.48690 -1.08446 21151 ft 379 kts 121°
2026-04-28 18:13 53.47114 -1.04875 21723 ft 382 kts 121°
2026-04-28 18:13 53.45523 -1.01279 22279 ft 385 kts 121°
2026-04-28 18:13 53.43920 -0.97659 22836 ft 388 kts 121°
2026-04-28 18:13 53.42303 -0.94009 23383 ft 391 kts 121°
2026-04-28 18:14 53.40675 -0.90343 23909 ft 394 kts 121°
2026-04-28 18:14 53.39034 -0.86653 24447 ft 396 kts 121°
2026-04-28 18:14 53.37380 -0.82939 24953 ft 399 kts 121°
2026-04-28 18:14 53.35715 -0.79206 25450 ft 402 kts 121°
2026-04-28 18:15 53.34037 -0.75449 25955 ft 404 kts 120°
2026-04-28 18:15 53.32372 -0.71665 26438 ft 404 kts 118°
2026-04-28 18:15 53.30969 -0.67615 26888 ft 401 kts 111°
2026-04-28 18:15 53.29892 -0.63339 27382 ft 398 kts 104°
2026-04-28 18:16 53.29066 -0.58927 27841 ft 399 kts 102°
2026-04-28 18:16 53.28230 -0.54490 28333 ft 401 kts 102°
2026-04-28 18:16 53.27375 -0.50040 28838 ft 403 kts 102°
2026-04-28 18:16 53.26528 -0.45571 29269 ft 406 kts 102°
2026-04-28 18:17 53.25681 -0.41062 29734 ft 407 kts 102°
2026-04-28 18:17 53.24825 -0.36549 30211 ft 409 kts 102°
2026-04-28 18:17 53.23990 -0.32246 30322 ft 377 kts 102°
2026-04-28 18:17 53.23182 -0.27982 30284 ft 393 kts 101°
2026-04-28 18:18 53.22352 -0.23557 30264 ft 407 kts 102°
2026-04-28 18:18 53.21475 -0.19010 30523 ft 413 kts 102°
2026-04-28 18:18 53.20586 -0.14462 30971 ft 415 kts 102°
2026-04-28 18:18 53.19997 -0.11412 31183 ft 417 kts 102°
2026-04-28 18:19 53.18815 -0.05249 31879 ft 416 kts 102°
2026-04-28 18:19 53.17938 -0.00726 32397 ft 416 kts 102°
2026-04-28 18:19 53.17044 0.03863 32869 ft 417 kts 102°
2026-04-28 18:19 53.16147 0.08483 33132 ft 422 kts 102°
2026-04-28 18:20 53.15237 0.13160 33485 ft 425 kts 103°
2026-04-28 18:20 53.14320 0.17830 34032 ft 423 kts 103°
2026-04-28 18:20 53.13404 0.22481 34537 ft 422 kts 103°
2026-04-28 18:20 53.12493 0.27135 34971 ft 423 kts 103°
2026-04-28 18:21 53.11576 0.31798 35375 ft 425 kts 103°
2026-04-28 18:21 53.10651 0.36471 35800 ft 425 kts 103°
2026-04-28 18:21 53.09723 0.41153 36215 ft 426 kts 103°
2026-04-28 18:21 53.08791 0.45848 36612 ft 428 kts 104°
2026-04-28 18:22 53.07857 0.50547 37068 ft 427 kts 104°
2026-04-28 18:22 53.06924 0.55224 37384 ft 429 kts 104°
2026-04-28 18:22 53.05000 0.64862 37364 ft 449 kts 104°
2026-04-28 18:23 53.03099 0.74918 37345 ft 461 kts 99°
2026-04-28 18:23 53.02314 0.83711 37370 ft 466 kts 93°
2026-04-28 18:24 53.01835 0.92763 37361 ft 473 kts 91°
2026-04-28 18:24 53.00239 1.05278 37336 ft 486 kts 107°
2026-04-28 18:25 52.97680 1.15686 37356 ft 487 kts 108°
2026-04-28 18:26 52.93832 1.31313 37348 ft 488 kts 109°
2026-04-28 18:26 52.91249 1.41729 37345 ft 489 kts 109°
2026-04-28 18:27 52.88659 1.52129 37343 ft 488 kts 109°
2026-04-28 18:27 52.86066 1.62470 37344 ft 484 kts 109°
2026-04-28 18:28 52.83478 1.72775 37329 ft 486 kts 109°
2026-04-28 18:28 52.80868 1.83083 37347 ft 486 kts 109°
2026-04-28 18:29 52.78258 1.93381 37348 ft 487 kts 109°
2026-04-28 18:29 52.75673 2.03485 37314 ft 466 kts 109°
2026-04-28 18:30 52.73161 2.13329 37320 ft 471 kts 109°
2026-04-28 18:30 52.70603 2.23239 37323 ft 463 kts 110°
2026-04-28 18:31 52.68102 2.32932 37312 ft 459 kts 109°
2026-04-28 18:31 52.65585 2.42628 37319 ft 461 kts 110°
2026-04-28 18:32 52.63052 2.52339 37311 ft 462 kts 110°
2026-04-28 18:32 52.60512 2.62049 37303 ft 462 kts 110°
2026-04-28 18:33 52.57960 2.71750 37295 ft 462 kts 110°
2026-04-28 18:33 52.55399 2.81446 37280 ft 463 kts 110°
2026-04-28 18:34 52.52445 2.90882 37282 ft 466 kts 115°
2026-04-28 18:34 52.49303 3.00203 37282 ft 466 kts 115°
2026-04-28 18:35 52.46184 3.09543 37270 ft 468 kts 115°
2026-04-28 18:35 52.43050 3.18803 37264 ft 468 kts 115°
2026-04-28 18:36 52.39899 3.28137 37256 ft 468 kts 116°
2026-04-28 18:36 52.36724 3.37476 37257 ft 470 kts 116°
2026-04-28 18:37 52.33523 3.46869 37274 ft 470 kts 116°
2026-04-28 18:37 52.30349 3.56143 37268 ft 471 kts 116°
2026-04-28 18:38 52.27120 3.65541 37262 ft 471 kts 116°
2026-04-28 18:38 52.23926 3.74813 37244 ft 472 kts 116°
2026-04-28 18:39 52.20700 3.84127 37246 ft 472 kts 117°
2026-04-28 18:39 52.17468 3.93439 37244 ft 472 kts 117°
2026-04-28 18:40 52.14220 4.02748 37251 ft 472 kts 117°
2026-04-28 18:40 52.10968 4.12047 37249 ft 473 kts 117°
2026-04-28 18:41 52.07706 4.21333 37253 ft 473 kts 117°
2026-04-28 18:41 52.04476 4.30491 37242 ft 474 kts 117°
2026-04-28 18:42 52.01181 4.39805 37238 ft 473 kts 117°
2026-04-28 18:42 51.97918 4.48995 37234 ft 473 kts 117°
2026-04-28 18:43 51.94610 4.58273 37236 ft 476 kts 118°
2026-04-28 18:43 51.91287 4.67566 37234 ft 477 kts 118°
2026-04-28 18:44 51.87945 4.76867 37238 ft 478 kts 118°
2026-04-28 18:44 51.82910 4.90828 37223 ft 480 kts 118°
2026-04-28 18:45 51.79533 5.00148 37224 ft 480 kts 118°
2026-04-28 18:45 51.76145 5.09461 37222 ft 481 kts 119°
2026-04-28 18:46 51.72742 5.18784 37224 ft 483 kts 119°
2026-04-28 18:46 51.69328 5.28103 37231 ft 483 kts 119°
2026-04-28 18:47 51.65899 5.37423 37228 ft 483 kts 119°
2026-04-28 18:47 51.62466 5.46729 37224 ft 483 kts 119°
2026-04-28 18:48 51.59024 5.56016 37231 ft 484 kts 119°
2026-04-28 18:48 51.55570 5.65309 37226 ft 484 kts 119°
2026-04-28 18:49 51.53255 5.71511 37228 ft 484 kts 119°
2026-04-28 18:49 51.48639 5.83849 37229 ft 485 kts 119°
2026-04-28 18:50 51.45160 5.93103 37217 ft 484 kts 120°
2026-04-28 18:50 51.41674 6.02344 37212 ft 485 kts 120°
2026-04-28 18:51 51.38166 6.11612 37209 ft 488 kts 120°
2026-04-28 18:51 51.34661 6.20833 37212 ft 488 kts 120°
2026-04-28 18:52 51.31123 6.30111 37207 ft 489 kts 120°
2026-04-28 18:52 51.27567 6.39404 37202 ft 490 kts 120°
2026-04-28 18:53 51.23999 6.48690 37203 ft 491 kts 121°
2026-04-28 18:53 51.20418 6.57982 37205 ft 492 kts 121°
2026-04-28 18:54 51.16827 6.67263 37209 ft 492 kts 121°
2026-04-28 18:54 51.13278 6.76407 37208 ft 494 kts 121°
2026-04-28 18:55 51.10270 6.84125 37205 ft 494 kts 121°
2026-04-28 18:55 51.06021 6.94994 37198 ft 495 kts 121°
2026-04-28 18:56 51.02375 7.04285 37191 ft 496 kts 122°
2026-04-28 18:56 50.98715 7.13574 37194 ft 497 kts 122°
2026-04-28 18:57 50.95065 7.22804 37189 ft 497 kts 122°
2026-04-28 18:57 50.91383 7.32090 37273 ft 498 kts 122°
2026-04-28 18:58 50.89578 7.36626 38411 ft 474 kts 122°
2026-04-28 18:58 50.87837 7.40992 39036 ft 469 kts 122°
2026-04-28 18:58 50.86087 7.45380 39256 ft 473 kts 122°
2026-04-28 18:58 50.84328 7.49782 39635 ft 473 kts 122°
2026-04-28 18:59 50.82566 7.54178 40035 ft 473 kts 122°
2026-04-28 18:59 50.80800 7.58578 40402 ft 474 kts 122°
2026-04-28 18:59 50.79029 7.62988 40772 ft 475 kts 122°
2026-04-28 18:59 50.77255 7.67397 41142 ft 476 kts 122°
2026-04-28 19:00 50.75475 7.71811 41504 ft 477 kts 122°
2026-04-28 19:00 50.73690 7.76230 41873 ft 478 kts 122°
2026-04-28 19:00 50.71902 7.80648 42219 ft 479 kts 122°
2026-04-28 19:00 50.70106 7.85080 42560 ft 480 kts 122°
2026-04-28 19:01 50.68307 7.89511 42893 ft 480 kts 122°
2026-04-28 19:01 50.66502 7.93949 43222 ft 481 kts 122°
2026-04-28 19:01 50.64696 7.98384 43564 ft 481 kts 122°
2026-04-28 19:01 50.62887 8.02817 43859 ft 482 kts 122°
2026-04-28 19:02 50.61070 8.07262 44105 ft 483 kts 122°
2026-04-28 19:02 50.59133 8.11597 44344 ft 485 kts 127°
2026-04-28 19:02 50.57023 8.15731 44644 ft 485 kts 129°
2026-04-28 19:02 50.54874 8.19812 44926 ft 485 kts 129°
2026-04-28 19:03 50.52763 8.23949 45184 ft 485 kts 128°
2026-04-28 19:03 50.50670 8.28148 45197 ft 491 kts 128°
2026-04-28 19:03 50.46326 8.36619 45205 ft 504 kts 129°
2026-04-28 19:04 50.41891 8.45276 45194 ft 514 kts 128°
2026-04-28 19:04 50.37351 8.54017 45170 ft 520 kts 131°
2026-04-28 19:05 50.32382 8.62299 45175 ft 524 kts 133°
2026-04-28 19:05 50.27396 8.70658 45187 ft 527 kts 132°
2026-04-28 19:06 50.23228 8.77629 45174 ft 529 kts 133°
2026-04-28 19:06 50.17315 8.87428 45169 ft 532 kts 133°
2026-04-28 19:07 50.12245 8.95842 45169 ft 533 kts 133°
2026-04-28 19:07 50.07141 9.04251 45171 ft 535 kts 133°
2026-04-28 19:08 50.02032 9.12669 45174 ft 536 kts 133°
2026-04-28 19:08 49.96933 9.21022 45153 ft 537 kts 133°
2026-04-28 19:09 49.91788 9.29437 45144 ft 537 kts 134°
2026-04-28 19:09 49.86634 9.37828 45153 ft 538 kts 134°
2026-04-28 19:10 49.81466 9.46222 45143 ft 538 kts 134°
2026-04-28 19:10 49.76291 9.54595 45146 ft 539 kts 134°
2026-04-28 19:11 49.71103 9.62963 45142 ft 539 kts 134°
2026-04-28 19:11 49.66749 9.69963 45132 ft 539 kts 134°
2026-04-28 19:12 49.61546 9.78305 45137 ft 539 kts 134°
2026-04-28 19:12 49.56334 9.86633 45143 ft 540 kts 134°
2026-04-28 19:13 49.51118 9.94941 45132 ft 540 kts 134°
2026-04-28 19:13 49.45890 10.03240 45136 ft 540 kts 134°
2026-04-28 19:14 49.40693 10.11463 45129 ft 540 kts 134°
2026-04-28 19:14 49.35452 10.19729 45135 ft 540 kts 134°
2026-04-28 19:15 49.30200 10.27986 45146 ft 541 kts 134°
2026-04-28 19:15 49.25796 10.34888 45156 ft 541 kts 134°
2026-04-28 19:16 49.19572 10.44288 45149 ft 541 kts 136°
2026-04-28 19:16 49.14184 10.52353 45158 ft 543 kts 136°
2026-04-28 19:17 49.08745 10.60369 45154 ft 544 kts 136°
2026-04-28 19:17 49.03304 10.68427 45157 ft 546 kts 136°
2026-04-28 19:18 48.97825 10.76475 45140 ft 548 kts 136°
2026-04-28 19:18 48.92332 10.84539 45130 ft 550 kts 136°
2026-04-28 19:19 48.86813 10.92605 45123 ft 550 kts 137°
2026-04-28 19:19 48.81288 11.00658 45112 ft 551 kts 137°
2026-04-28 19:20 48.75754 11.08698 45110 ft 551 kts 137°
2026-04-28 19:20 48.70212 11.16721 45106 ft 551 kts 137°
2026-04-28 19:21 48.64667 11.24737 45109 ft 551 kts 136°
2026-04-28 19:21 48.59479 11.33277 45100 ft 552 kts 132°
2026-04-28 19:22 48.55197 11.40474 45096 ft 556 kts 133°
2026-04-28 19:22 48.49066 11.50545 45099 ft 558 kts 133°
2026-04-28 19:23 48.43847 11.59213 45104 ft 558 kts 133°
2026-04-28 19:23 48.38629 11.67753 45111 ft 558 kts 133°
2026-04-28 19:24 48.33388 11.76380 45107 ft 559 kts 133°
2026-04-28 19:24 48.28114 11.84976 45104 ft 559 kts 133°
2026-04-28 19:25 48.22851 11.93564 45105 ft 559 kts 133°
2026-04-28 19:25 48.17573 12.02124 45106 ft 559 kts 133°
2026-04-28 19:26 48.12295 12.10672 45111 ft 559 kts 133°
2026-04-28 19:26 48.07007 12.19199 45109 ft 559 kts 134°
2026-04-28 19:27 48.01714 12.27709 45108 ft 559 kts 134°
2026-04-28 19:27 47.96413 12.36205 45098 ft 559 kts 134°
2026-04-28 19:28 47.91111 12.44676 45100 ft 559 kts 134°
2026-04-28 19:28 47.85794 12.53141 45104 ft 560 kts 134°
2026-04-28 19:29 47.81369 12.60174 45107 ft 559 kts 133°
2026-04-28 19:29 47.75814 12.70892 45104 ft 560 kts 126°
2026-04-28 19:30 47.71101 12.80004 45106 ft 560 kts 129°
2026-04-28 19:30 47.66327 12.89166 45112 ft 561 kts 127°
2026-04-28 19:31 47.61592 12.98362 45107 ft 560 kts 129°
2026-04-28 19:31 47.56795 13.07474 45106 ft 560 kts 128°
2026-04-28 19:32 47.52043 13.16636 45106 ft 562 kts 128°
2026-04-28 19:32 47.47228 13.25744 45110 ft 562 kts 128°
2026-04-28 19:33 47.42444 13.34876 45114 ft 562 kts 128°
2026-04-28 19:33 47.37626 13.43960 45120 ft 562 kts 128°
2026-04-28 19:34 47.32819 13.53049 45127 ft 562 kts 128°
2026-04-28 19:34 47.27994 13.62106 45129 ft 562 kts 129°
2026-04-28 19:35 47.23170 13.71153 45136 ft 562 kts 129°
2026-04-28 19:35 47.18334 13.80180 45138 ft 562 kts 129°
2026-04-28 19:36 47.13489 13.89198 45138 ft 562 kts 129°
2026-04-28 19:36 47.08609 13.98144 45154 ft 561 kts 129°
2026-04-28 19:37 47.04574 14.05555 45630 ft 549 kts 129°
2026-04-28 19:37 47.01496 14.11204 47288 ft 512 kts 129°
2026-04-28 19:37 46.99299 14.15203 48031 ft 499 kts 129°
2026-04-28 19:38 46.94947 14.23132 48076 ft 496 kts 129°
2026-04-28 19:38 46.92823 14.27003 48300 ft 479 kts 129°
2026-04-28 19:38 46.90746 14.30775 48395 ft 475 kts 129°
2026-04-28 19:39 46.86596 14.38290 48570 ft 475 kts 129°
2026-04-28 19:39 46.84525 14.42041 48684 ft 473 kts 129°
2026-04-28 19:39 46.82459 14.45773 48796 ft 472 kts 129°
2026-04-28 19:40 46.80394 14.49495 48905 ft 471 kts 129°
2026-04-28 19:40 46.78336 14.53204 49028 ft 470 kts 129°
2026-04-28 19:40 46.76281 14.56902 49136 ft 469 kts 129°
2026-04-28 19:40 46.74226 14.60594 49182 ft 469 kts 129°
2026-04-28 19:41 46.70098 14.67995 49175 ft 472 kts 129°
2026-04-28 19:41 46.65938 14.75436 49168 ft 475 kts 129°
2026-04-28 19:42 46.61776 14.82859 49172 ft 465 kts 129°
2026-04-28 19:42 46.58410 14.88847 49159 ft 458 kts 129°
2026-04-28 19:43 46.53708 14.97191 49159 ft 461 kts 130°
2026-04-28 19:43 46.49624 15.04417 49178 ft 464 kts 130°
2026-04-28 19:44 46.45513 15.11673 49159 ft 467 kts 130°
2026-04-28 19:44 46.41367 15.18971 49170 ft 470 kts 130°
2026-04-28 19:45 46.37189 15.26306 49165 ft 473 kts 130°
2026-04-28 19:45 46.32981 15.33674 49156 ft 476 kts 130°
2026-04-28 19:46 46.28753 15.41057 49137 ft 476 kts 130°
2026-04-28 19:46 46.24526 15.48419 49142 ft 476 kts 130°
2026-04-28 19:47 46.20284 15.55789 49156 ft 478 kts 130°
2026-04-28 19:47 46.16013 15.63188 49144 ft 481 kts 130°
2026-04-28 19:48 46.11711 15.70621 49148 ft 484 kts 130°
2026-04-28 19:48 46.07378 15.78087 49138 ft 487 kts 131°
2026-04-28 19:49 46.03019 15.85577 49149 ft 488 kts 131°
2026-04-28 19:49 45.98654 15.93058 49141 ft 488 kts 131°
2026-04-28 19:50 45.92107 16.04241 49127 ft 487 kts 131°
2026-04-28 19:51 45.87740 16.11675 49130 ft 487 kts 131°
2026-04-28 19:51 45.83369 16.19097 49133 ft 487 kts 131°
2026-04-28 19:52 45.78989 16.26514 49133 ft 487 kts 131°
2026-04-28 19:52 45.74605 16.33918 49132 ft 487 kts 131°
2026-04-28 19:53 45.70213 16.41314 49134 ft 488 kts 131°
2026-04-28 19:53 45.65811 16.48709 49137 ft 488 kts 131°
2026-04-28 19:54 45.61402 16.56097 49132 ft 488 kts 131°
2026-04-28 19:54 45.56988 16.63472 49126 ft 488 kts 131°
2026-04-28 19:55 45.52572 16.70831 49111 ft 488 kts 131°
2026-04-28 19:55 45.48147 16.78187 49116 ft 489 kts 131°
2026-04-28 19:56 45.43742 16.85489 49122 ft 489 kts 131°
2026-04-28 19:56 45.39300 16.92833 49112 ft 490 kts 132°
2026-04-28 19:57 45.34853 17.00166 49116 ft 489 kts 132°
2026-04-28 19:57 45.30405 17.07482 49118 ft 489 kts 132°
2026-04-28 19:58 45.25950 17.14791 49119 ft 490 kts 132°
2026-04-28 19:58 45.21482 17.22102 49113 ft 491 kts 132°
2026-04-28 19:59 45.17731 17.28225 49104 ft 491 kts 132°
2026-04-28 19:59 45.13253 17.35516 49100 ft 490 kts 132°
2026-04-28 20:00 45.08774 17.42790 49092 ft 490 kts 132°
2026-04-28 20:00 45.04319 17.50007 49100 ft 490 kts 132°
2026-04-28 20:01 44.99828 17.57263 49112 ft 491 kts 132°
2026-04-28 20:01 44.95318 17.64531 49107 ft 492 kts 132°
2026-04-28 20:02 44.90806 17.71784 49104 ft 492 kts 132°
2026-04-28 20:02 44.86288 17.79027 49103 ft 492 kts 133°
2026-04-28 20:03 44.81761 17.86267 49102 ft 493 kts 133°
2026-04-28 20:03 44.77226 17.93499 49104 ft 493 kts 133°
2026-04-28 20:04 44.72686 18.00722 49103 ft 493 kts 133°
2026-04-28 20:04 44.68138 18.07939 49105 ft 494 kts 133°
2026-04-28 20:05 44.63577 18.15157 49105 ft 494 kts 133°
2026-04-28 20:05 44.59015 18.22359 49101 ft 494 kts 133°
2026-04-28 20:06 44.54451 18.29546 49103 ft 493 kts 133°
2026-04-28 20:06 44.49881 18.36724 49107 ft 494 kts 133°
2026-04-28 20:07 44.45335 18.43845 49109 ft 494 kts 133°
2026-04-28 20:07 44.40755 18.51003 49106 ft 494 kts 133°
2026-04-28 20:08 44.36171 18.58148 49103 ft 494 kts 133°
2026-04-28 20:08 44.31584 18.65279 49094 ft 493 kts 133°
2026-04-28 20:09 44.26994 18.72396 49092 ft 493 kts 133°
2026-04-28 20:09 44.22401 18.79501 49093 ft 493 kts 133°
2026-04-28 20:10 44.17804 18.86594 49108 ft 493 kts 133°
2026-04-28 20:10 44.13192 18.93693 49106 ft 495 kts 133°
2026-04-28 20:11 44.08552 19.00816 49109 ft 498 kts 133°
2026-04-28 20:11 44.03884 19.07966 49109 ft 501 kts 133°
2026-04-28 20:12 43.99182 19.15147 49110 ft 504 kts 133°
2026-04-28 20:12 43.94452 19.22355 49093 ft 505 kts 134°
2026-04-28 20:13 43.89704 19.29569 49118 ft 508 kts 134°
2026-04-28 20:13 43.84925 19.36815 49111 ft 510 kts 134°
2026-04-28 20:14 43.80120 19.44077 49109 ft 513 kts 134°
2026-04-28 20:14 43.75287 19.51367 49110 ft 515 kts 134°
2026-04-28 20:15 43.70424 19.58681 49110 ft 518 kts 134°
2026-04-28 20:15 43.65534 19.66020 49096 ft 520 kts 134°
2026-04-28 20:16 43.60619 19.73374 49098 ft 522 kts 134°
2026-04-28 20:16 43.55680 19.80745 49099 ft 524 kts 134°
2026-04-28 20:17 43.50721 19.88128 49112 ft 525 kts 134°
2026-04-28 20:17 43.45745 19.95516 49109 ft 527 kts 134°
2026-04-28 20:18 43.40746 20.02919 49108 ft 529 kts 134°
2026-04-28 20:18 43.35726 20.10335 49103 ft 531 kts 134°
2026-04-28 20:19 43.30685 20.17761 49106 ft 532 kts 134°
2026-04-28 20:19 43.25626 20.25193 49095 ft 533 kts 134°
2026-04-28 20:20 43.20584 20.32584 49095 ft 535 kts 134°
2026-04-28 20:20 43.15493 20.40025 49103 ft 536 kts 134°
2026-04-28 20:21 43.10390 20.47465 49111 ft 536 kts 134°
2026-04-28 20:21 43.05274 20.54904 49107 ft 537 kts 135°
2026-04-28 20:22 43.00140 20.62327 49094 ft 537 kts 136°
2026-04-28 20:22 42.94753 20.69377 49095 ft 537 kts 138°
2026-04-28 20:23 42.89358 20.76426 49099 ft 537 kts 137°
2026-04-28 20:23 42.83960 20.83468 49101 ft 537 kts 138°
2026-04-28 20:24 42.78548 20.90488 49103 ft 538 kts 138°
2026-04-28 20:24 42.73134 20.97518 49105 ft 538 kts 138°
2026-04-28 20:25 42.67704 21.04529 49104 ft 538 kts 138°
2026-04-28 20:25 42.62275 21.11537 49110 ft 539 kts 138°
2026-04-28 20:26 42.56833 21.18534 49104 ft 539 kts 138°
2026-04-28 20:26 42.51388 21.25523 49096 ft 539 kts 138°
2026-04-28 20:27 42.45932 21.32504 49093 ft 539 kts 138°
2026-04-28 20:27 42.40474 21.39474 49097 ft 539 kts 138°
2026-04-28 20:28 42.35012 21.46429 49082 ft 540 kts 139°
2026-04-28 20:28 42.29538 21.53384 49080 ft 540 kts 139°
2026-04-28 20:29 42.24060 21.60325 49061 ft 540 kts 139°
2026-04-28 20:29 42.18691 21.67427 49062 ft 540 kts 137°
2026-04-28 20:30 42.13357 21.74460 49054 ft 540 kts 137°
2026-04-28 20:30 42.08012 21.81570 49056 ft 540 kts 137°
2026-04-28 20:31 42.02642 21.88642 49059 ft 540 kts 137°
2026-04-28 20:31 41.97284 21.95714 49065 ft 540 kts 137°
2026-04-28 20:32 41.91913 22.02768 49057 ft 540 kts 137°
2026-04-28 20:32 41.86540 22.09813 49060 ft 540 kts 137°
2026-04-28 20:33 41.81161 22.16848 49056 ft 540 kts 137°
2026-04-28 20:33 41.75781 22.23866 49057 ft 540 kts 137°
2026-04-28 20:34 41.70393 22.30878 49070 ft 540 kts 137°
2026-04-28 20:34 41.65003 22.37875 49068 ft 540 kts 137°
2026-04-28 20:35 41.59607 22.44863 49073 ft 540 kts 137°
2026-04-28 20:35 41.54210 22.51834 49081 ft 540 kts 138°
2026-04-28 20:36 41.48812 22.58790 49075 ft 540 kts 138°
2026-04-28 20:36 41.43408 22.65736 49088 ft 539 kts 138°
2026-04-28 20:37 41.38030 22.72634 49705 ft 523 kts 138°
2026-04-28 20:37 41.35470 22.75917 50681 ft 502 kts 138°
2026-04-28 20:37 41.32942 22.79044 51074 ft 493 kts 142°
2026-04-28 20:38 41.27285 22.84105 51080 ft 488 kts 152°
2026-04-28 20:38 41.21564 22.88981 51094 ft 489 kts 148°
2026-04-28 20:39 41.15949 22.93958 51097 ft 488 kts 149°
2026-04-28 20:39 41.10242 22.98832 51098 ft 488 kts 148°
2026-04-28 20:40 41.04928 23.04462 51101 ft 490 kts 142°
2026-04-28 20:40 40.99670 23.10185 51105 ft 489 kts 144°
2026-04-28 20:41 40.94374 23.15828 51103 ft 489 kts 142°
2026-04-28 20:41 40.89116 23.21517 51110 ft 488 kts 143°
2026-04-28 20:42 40.83825 23.27149 51100 ft 489 kts 143°
2026-04-28 20:42 40.78551 23.32811 51103 ft 488 kts 143°
2026-04-28 20:43 40.73264 23.38435 51104 ft 488 kts 143°
2026-04-28 20:43 40.67978 23.44071 51105 ft 488 kts 143°
2026-04-28 20:44 40.62690 23.49682 51111 ft 488 kts 143°
2026-04-28 20:44 40.57402 23.55290 51110 ft 488 kts 143°
2026-04-28 20:45 40.52110 23.60886 51109 ft 488 kts 143°
2026-04-28 20:45 40.46815 23.66476 51103 ft 488 kts 143°
2026-04-28 20:46 40.41549 23.72022 51108 ft 488 kts 143°
2026-04-28 20:46 40.36249 23.77593 51101 ft 488 kts 143°
2026-04-28 20:47 40.30948 23.83153 51097 ft 488 kts 143°
2026-04-28 20:47 40.25649 23.88700 51096 ft 487 kts 144°
2026-04-28 20:48 40.20354 23.94232 51110 ft 487 kts 144°
2026-04-28 20:48 40.15914 23.98861 51105 ft 487 kts 144°
2026-04-28 20:49 40.10651 24.04338 51105 ft 487 kts 144°
2026-04-28 20:49 40.05351 24.09842 51089 ft 487 kts 144°
2026-04-28 20:50 40.00045 24.15342 51090 ft 487 kts 144°
2026-04-28 20:50 39.94742 24.20827 51104 ft 486 kts 144°
2026-04-28 20:51 39.89440 24.26300 51101 ft 486 kts 144°
2026-04-28 20:51 39.84132 24.31768 51101 ft 486 kts 144°
2026-04-28 20:52 39.78823 24.37226 51086 ft 486 kts 144°
2026-04-28 20:52 39.73512 24.42674 51093 ft 486 kts 144°
2026-04-28 20:53 39.65541 24.50831 51088 ft 486 kts 144°
2026-04-28 20:53 39.60222 24.56261 51085 ft 486 kts 144°
2026-04-28 20:54 39.54900 24.61683 51083 ft 487 kts 144°
2026-04-28 20:54 39.49626 24.67173 51074 ft 488 kts 139°
2026-04-28 20:55 39.44957 24.73560 51101 ft 489 kts 134°
2026-04-28 20:55 39.40288 24.79949 51099 ft 488 kts 136°
2026-04-28 20:56 39.35602 24.86310 51097 ft 489 kts 135°
2026-04-28 20:56 39.30935 24.92687 51105 ft 488 kts 136°
2026-04-28 20:57 39.26243 24.99032 51089 ft 489 kts 135°
2026-04-28 20:57 39.21564 25.05389 51077 ft 489 kts 136°
2026-04-28 20:58 39.16865 25.11730 51096 ft 489 kts 136°
2026-04-28 20:58 39.12170 25.18072 51095 ft 489 kts 136°
2026-04-28 20:59 39.07468 25.24397 51094 ft 489 kts 136°
2026-04-28 20:59 39.02794 25.30680 51092 ft 489 kts 136°
2026-04-28 21:00 38.98081 25.36998 51075 ft 490 kts 136°
2026-04-28 21:00 38.93360 25.43315 51060 ft 490 kts 136°
2026-04-28 21:01 38.88635 25.49625 51007 ft 490 kts 136°
2026-04-28 21:01 38.86248 25.52805 50262 ft 499 kts 136°
2026-04-28 21:01 38.83827 25.56029 49588 ft 503 kts 136°
2026-04-28 21:02 38.81391 25.59271 48899 ft 506 kts 136°
2026-04-28 21:02 38.78948 25.62521 48228 ft 506 kts 136°
2026-04-28 21:02 38.76503 25.65766 47558 ft 506 kts 136°
2026-04-28 21:02 38.74061 25.69004 46887 ft 505 kts 136°
2026-04-28 21:03 38.71623 25.72235 46220 ft 503 kts 136°
2026-04-28 21:03 38.69192 25.75453 45562 ft 502 kts 136°
2026-04-28 21:03 38.66763 25.78663 44896 ft 502 kts 136°
2026-04-28 21:03 38.64331 25.81875 44229 ft 503 kts 136°
2026-04-28 21:04 38.61893 25.85092 43548 ft 505 kts 136°
2026-04-28 21:04 38.59446 25.88317 42872 ft 506 kts 136°
2026-04-28 21:04 38.56999 25.91539 42202 ft 505 kts 136°
2026-04-28 21:04 38.54555 25.94754 41535 ft 503 kts 136°
2026-04-28 21:05 38.52126 25.97946 40887 ft 499 kts 136°
2026-04-28 21:05 38.49714 26.01114 40228 ft 496 kts 136°
2026-04-28 21:05 38.47311 26.04263 39576 ft 493 kts 135°
2026-04-28 21:05 38.44925 26.07385 38941 ft 490 kts 135°
2026-04-28 21:06 38.42553 26.10488 38282 ft 488 kts 135°
2026-04-28 21:06 38.40188 26.13582 37640 ft 486 kts 135°
2026-04-28 21:06 38.37975 26.16818 36983 ft 483 kts 126°
2026-04-28 21:06 38.36191 26.20424 36356 ft 479 kts 116°
2026-04-28 21:07 38.34891 26.24306 35732 ft 475 kts 106°
2026-04-28 21:07 38.34103 26.28323 35118 ft 474 kts 96°
2026-04-28 21:07 38.33815 26.32492 34489 ft 472 kts 88°
2026-04-28 21:07 38.33900 26.36657 33968 ft 466 kts 83°
2026-04-28 21:08 38.34092 26.40758 33451 ft 465 kts 83°
2026-04-28 21:08 38.34162 26.44901 32821 ft 471 kts 88°
2026-04-28 21:08 38.33955 26.49082 32186 ft 475 kts 91°
2026-04-28 21:08 38.33629 26.53279 31560 ft 476 kts 92°
2026-04-28 21:09 38.33420 26.57495 30919 ft 477 kts 89°
2026-04-28 21:09 38.33352 26.61726 30284 ft 478 kts 88°
2026-04-28 21:09 38.33235 26.65938 29654 ft 473 kts 90°
2026-04-28 21:09 38.33013 26.70102 29033 ft 469 kts 91°
2026-04-28 21:10 38.32806 26.74233 28414 ft 465 kts 90°
2026-04-28 21:10 38.32669 26.78316 27808 ft 460 kts 89°
2026-04-28 21:10 38.32534 26.82368 27207 ft 456 kts 90°
2026-04-28 21:10 38.32356 26.86388 26612 ft 453 kts 91°
2026-04-28 21:11 38.32169 26.90375 26010 ft 449 kts 91°
2026-04-28 21:11 38.31877 26.94312 25365 ft 447 kts 98°
2026-04-28 21:11 38.30797 26.98016 24794 ft 447 kts 116°
2026-04-28 21:11 38.28958 27.01184 24207 ft 446 kts 133°
2026-04-28 21:12 38.26510 27.03563 23612 ft 443 kts 150°
2026-04-28 21:12 38.23741 27.05213 23073 ft 438 kts 156°
2026-04-28 21:12 38.20955 27.06733 22487 ft 433 kts 157°
2026-04-28 21:12 38.18196 27.08227 21907 ft 430 kts 157°
2026-04-28 21:13 38.15468 27.09748 21333 ft 425 kts 156°
2026-04-28 21:13 38.12773 27.11263 20771 ft 422 kts 156°
2026-04-28 21:13 38.10097 27.12742 20210 ft 418 kts 157°
2026-04-28 21:13 38.07440 27.14194 19655 ft 414 kts 157°
2026-04-28 21:14 38.04815 27.15642 19110 ft 410 kts 156°
2026-04-28 21:14 38.02211 27.17088 18568 ft 407 kts 156°
2026-04-28 21:14 37.99632 27.18513 18014 ft 402 kts 156°
2026-04-28 21:14 37.97086 27.19912 17500 ft 398 kts 156°
2026-04-28 21:15 37.94555 27.21303 16973 ft 395 kts 156°
2026-04-28 21:15 37.92103 27.22653 16464 ft 391 kts 156°
2026-04-28 21:15 37.89617 27.24022 15944 ft 388 kts 156°
2026-04-28 21:15 37.87150 27.25378 15429 ft 385 kts 156°
2026-04-28 21:16 37.84703 27.26720 14920 ft 382 kts 157°
2026-04-28 21:16 37.82308 27.28033 14418 ft 379 kts 157°
2026-04-28 21:16 37.79900 27.29354 13912 ft 375 kts 157°
2026-04-28 21:16 37.77514 27.30662 13413 ft 370 kts 157°
2026-04-28 21:17 37.75216 27.31921 12952 ft 350 kts 157°
2026-04-28 21:17 37.73046 27.33109 12527 ft 331 kts 157°
2026-04-28 21:17 37.70987 27.34233 12117 ft 316 kts 157°
2026-04-28 21:17 37.69006 27.35315 11720 ft 304 kts 157°
2026-04-28 21:18 37.67079 27.36367 11344 ft 300 kts 157°
2026-04-28 21:18 37.65164 27.37413 10953 ft 299 kts 157°
2026-04-28 21:18 37.63201 27.38253 10496 ft 299 kts 172°
2026-04-28 21:18 37.61159 27.38013 10124 ft 294 kts 194°
2026-04-28 21:19 37.59196 27.37290 9803 ft 295 kts 198°
2026-04-28 21:19 37.57234 27.36522 9415 ft 295 kts 197°
2026-04-28 21:19 37.55266 27.35787 9016 ft 295 kts 196°
2026-04-28 21:19 37.53303 27.35075 8614 ft 293 kts 196°
2026-04-28 21:20 37.51355 27.34359 8224 ft 290 kts 197°
2026-04-28 21:20 37.49425 27.33639 7841 ft 288 kts 197°
2026-04-28 21:20 37.47503 27.32926 7455 ft 287 kts 197°
2026-04-28 21:20 37.45590 27.32220 7078 ft 286 kts 197°
2026-04-28 21:21 37.43690 27.31518 6700 ft 283 kts 197°
2026-04-28 21:21 37.41847 27.30839 6460 ft 268 kts 197°
2026-04-28 21:21 37.40120 27.30200 6341 ft 251 kts 197°
2026-04-28 21:21 37.38492 27.29600 6209 ft 236 kts 197°
2026-04-28 21:22 37.36942 27.29034 6099 ft 229 kts 196°
2026-04-28 21:22 37.35377 27.28950 5883 ft 229 kts 165°
2026-04-28 21:22 37.34056 27.29979 5719 ft 224 kts 130°
2026-04-28 21:22 37.33547 27.31085 5643 ft 219 kts 110°
2026-04-28 21:23 37.32956 27.33520 5577 ft 222 kts 104°
2026-04-28 21:23 37.32511 27.35406 5242 ft 226 kts 105°
2026-04-28 21:23 37.32063 27.37292 4895 ft 224 kts 105°
2026-04-28 21:23 37.31625 27.39131 4571 ft 216 kts 105°
2026-04-28 21:24 37.31203 27.40904 4255 ft 208 kts 105°
2026-04-28 21:24 37.30799 27.42594 3962 ft 202 kts 105°
2026-04-28 21:24 37.30403 27.44263 3670 ft 197 kts 105°
2026-04-28 21:24 37.30013 27.45902 3386 ft 195 kts 105°
2026-04-28 21:25 37.29626 27.47530 3103 ft 195 kts 105°
2026-04-28 21:25 37.29239 27.49157 2825 ft 195 kts 105°
2026-04-28 21:25 37.28854 27.50773 2527 ft 191 kts 107°
2026-04-28 21:25 37.28478 27.52355 2262 ft 188 kts 107°
2026-04-28 21:26 37.28107 27.53915 1987 ft 181 kts 107°
2026-04-28 21:26 37.27767 27.55346 1714 ft 164 kts 108°
2026-04-28 21:26 37.27461 27.56633 1492 ft 145 kts 105°
2026-04-28 21:26 37.27187 27.57785 1294 ft 130 kts 105°
2026-04-28 21:27 37.26940 27.58837 1115 ft 124 kts 106°
2026-04-28 21:27 37.26694 27.59870 942 ft 123 kts 106°
2026-04-28 21:27 37.26450 27.60898 765 ft 123 kts 106°
2026-04-28 21:27 37.26206 27.61932 589 ft 123 kts 106°
2026-04-28 21:28 37.25960 27.62962 407 ft 123 kts 107°
2026-04-28 21:28 37.25713 27.64000 226 ft 124 kts 106°
2026-04-28 21:28 37.25468 27.65032 46 ft 123 kts 107°
2026-04-28 21:28 37.25247 27.65962 26 ft 95 kts 107°
2026-04-28 21:29 37.25135 27.66425 27 ft 30 kts 107°
2026-04-28 21:29 37.25064 27.66606 26 ft 22 kts 126°
2026-04-28 21:29 37.24985 27.66718 27 ft 13 kts 135°
2026-04-28 21:29 37.24920 27.66799 27 ft 13 kts 137°
2026-04-28 21:30 37.24851 27.66878 27 ft 13 kts 138°
2026-04-28 21:30 37.24782 27.66944 26 ft 12 kts 150°
2026-04-28 21:30 37.24711 27.66967 27 ft 10 kts 192°
2026-04-28 21:30 37.24658 27.66988 27 ft 8 kts 105°
2026-04-28 21:31 37.24641 27.67062 27 ft 10 kts 106°
2026-04-28 21:31 37.24619 27.67151 27 ft 11 kts 106°
2026-04-28 21:31 37.24595 27.67255 27 ft 12 kts 107°
2026-04-28 21:31 37.24578 27.67326 27 ft 7 kts 107°
2026-04-28 21:32 37.24559 27.67400 27 ft 11 kts 106°
2026-04-28 21:32 37.24535 27.67504 27 ft 13 kts 107°
2026-04-28 21:32 37.24513 27.67598 27 ft 9 kts 108°
2026-04-28 21:32 37.24494 27.67674 27 ft 9 kts 106°
2026-04-28 21:33 37.24476 27.67747 27 ft 9 kts 107°
2026-04-28 21:33 37.24460 27.67820 27 ft 8 kts 107°
2026-04-28 21:33 37.24463 27.67873 27 ft 6 kts 39°
2026-04-28 21:33 37.24497 27.67886 27 ft 4 kts 16°
2026-04-28 21:34 37.24511 27.67891 27 ft 0 kts 17°